#�ϑ�����,���ϕ���,���ϕ���,�ő啗��,�ő啗����������,�ő�u�ԕ���,�ő�u�ԕ�����������
#(�N����),(m/s)   ,(16����),(m/s)   ,(16����)        ,(m/s)       ,(16����)            
2016/12/16 0:01,0.9,10,0.9,10,1.4,10
2016/12/16 0:02,0.8,10,0.9,10,1.1,9
2016/12/16 0:03,0.8,10,0.8,10,1.3,10
2016/12/16 0:04,0.8,10,0.8,10,1.5,10
2016/12/16 0:05,0.8,10,0.8,10,1.8,10
2016/12/16 0:06,0.9,10,0.9,10,1.8,9
2016/12/16 0:07,0.8,10,0.9,10,1.1,10
2016/12/16 0:08,0.8,10,0.8,10,1,9
2016/12/16 0:09,0.7,10,0.8,10,1,10
2016/12/16 0:10,0.7,10,0.8,10,0.5,12
2016/12/16 0:11,0.6,10,0.7,10,0.8,11
2016/12/16 0:12,0.6,10,0.6,10,1.1,9
2016/12/16 0:13,0.6,10,0.6,10,1.3,9
2016/12/16 0:14,0.6,10,0.6,10,1.8,10
2016/12/16 0:15,0.5,10,0.6,10,1.5,11
2016/12/16 0:16,0.5,10,0.5,10,0.9,9
2016/12/16 0:17,0.5,10,0.5,10,1.4,9
2016/12/16 0:18,0.6,10,0.6,10,1.4,10
2016/12/16 0:19,0.6,10,0.6,10,1.5,9
2016/12/16 0:20,0.8,10,0.8,10,1.6,11
2016/12/16 0:21,0.9,10,0.9,10,2.2,11
2016/12/16 0:22,1,10,1,10,2,11
2016/12/16 0:23,1,10,1,10,1.4,11
2016/12/16 0:24,1,10,1,10,1.9,11
2016/12/16 0:25,1,11,1,10,1.9,11
2016/12/16 0:26,1.1,11,1.1,10,1.5,10
2016/12/16 0:27,1.1,11,1.1,10,1.8,11
2016/12/16 0:28,1.1,11,1.1,10,1.8,11
2016/12/16 0:29,1.2,11,1.2,11,2.2,11
2016/12/16 0:30,1.2,11,1.2,11,2.1,11
2016/12/16 0:31,1.2,11,1.2,11,2.4,9
2016/12/16 0:32,1.2,11,1.2,11,2.4,10
2016/12/16 0:33,1.2,11,1.2,11,2.1,10
2016/12/16 0:34,1.2,11,1.2,11,1.6,12
2016/12/16 0:35,1.2,11,1.2,11,1.9,13
2016/12/16 0:36,1.1,11,1.2,11,1.3,13
2016/12/16 0:37,1.1,11,1.1,11,1.5,10
2016/12/16 0:38,1,12,1.1,11,1.1,15
2016/12/16 0:39,1,12,1,11,1.6,13
2016/12/16 0:40,0.9,12,1,11,1.4,13
2016/12/16 0:41,0.9,12,1,11,1.3,12
2016/12/16 0:42,0.8,12,0.9,11,0.8,11
2016/12/16 0:43,0.7,12,0.8,11,0.8,12
2016/12/16 0:44,0.6,12,0.7,11,1,9
2016/12/16 0:45,0.6,12,0.6,11,1.3,9
2016/12/16 0:46,0.6,12,0.6,11,1,11
2016/12/16 0:47,0.6,12,0.6,11,1.1,11
2016/12/16 0:48,0.6,11,0.6,12,1.8,8
2016/12/16 0:49,0.6,11,0.6,12,1,9
2016/12/16 0:50,0.5,11,0.6,12,0.3,14
2016/12/16 0:51,0.5,11,0.5,12,1.6,11
2016/12/16 0:52,0.6,11,0.6,12,1.5,10
2016/12/16 0:53,0.6,11,0.6,12,1.1,13
2016/12/16 0:54,0.6,11,0.6,12,0.8,13
2016/12/16 0:55,0.6,11,0.6,12,1,11
2016/12/16 0:56,0.6,11,0.6,12,1.3,11
2016/12/16 0:57,0.5,11,0.6,12,0.6,9
2016/12/16 0:58,0.5,12,0.5,11,0.5,12
2016/12/16 0:59,0.5,12,0.5,11,1,13
2016/12/16 1:00,0.5,12,0.5,11,0.6,13
2016/12/16 1:01,0.5,12,0.5,11,1.1,10
2016/12/16 1:02,0.5,12,0.5,11,1.6,8
2016/12/16 1:03,0.5,12,0.5,11,1.6,9
2016/12/16 1:04,0.6,11,0.6,11,2,9
2016/12/16 1:05,0.7,11,0.7,11,2.5,9
2016/12/16 1:06,0.7,11,0.7,11,2.4,10
2016/12/16 1:07,0.9,11,0.9,11,2.2,11
2016/12/16 1:08,1,10,1,10,2.5,11
2016/12/16 1:09,1.1,10,1.1,10,2.4,11
2016/12/16 1:10,1.2,10,1.2,10,1.5,10
2016/12/16 1:11,1.2,10,1.2,10,1.5,9
2016/12/16 1:12,1.2,10,1.2,10,1.6,9
2016/12/16 1:13,1.1,10,1.2,10,0.4,9
2016/12/16 1:14,1,10,1.1,10,0.1,15
2016/12/16 1:15,0.9,10,1,10,0.1,11
2016/12/16 1:16,0.7,11,0.9,10,0.5,11
2016/12/16 1:17,0.6,11,0.7,10,0.1,12
2016/12/16 1:18,0.4,11,0.6,10,0.5,16
2016/12/16 1:19,0.3,12,0.4,10,0.4,16
2016/12/16 1:20,0.2,13,0.3,10,0.5,15
2016/12/16 1:21,0.1,13,0.2,10,0.8,1
2016/12/16 1:22,0.1,14,0.1,10,0.8,1
2016/12/16 1:23,0.1,15,0.1,10,0.5,1
2016/12/16 1:24,0.1,15,0.1,10,0.6,1
2016/12/16 1:25,0.2,16,0.2,10,0.4,2
2016/12/16 1:26,0.1,1,0.2,11,0,2
2016/12/16 1:27,0.2,1,0.2,11,0.5,5
2016/12/16 1:28,0.2,2,0.2,11,0.6,6
2016/12/16 1:29,0.2,2,0.2,12,0.8,5
2016/12/16 1:30,0.3,3,0.3,3,1,6
2016/12/16 1:31,0.3,4,0.3,3,0.8,6
2016/12/16 1:32,0.3,4,0.3,3,0.1,6
2016/12/16 1:33,0.3,4,0.3,3,0.3,1
2016/12/16 1:34,0.3,4,0.3,3,0.8,2
2016/12/16 1:35,0.3,4,0.3,3,1,3
2016/12/16 1:36,0.4,4,0.4,4,0.9,2
2016/12/16 1:37,0.3,4,0.4,4,0.5,1
2016/12/16 1:38,0.3,3,0.3,4,0.6,3
2016/12/16 1:39,0.3,3,0.3,4,0.6,2
2016/12/16 1:40,0.4,2,0.4,4,1.6,1
2016/12/16 1:41,0.4,2,0.4,4,1.4,1
2016/12/16 1:42,0.6,2,0.6,2,1.8,1
2016/12/16 1:43,0.7,1,0.7,1,1.5,1
2016/12/16 1:44,0.7,1,0.7,1,0.8,16
2016/12/16 1:45,0.6,1,0.7,1,0.4,16
2016/12/16 1:46,0.6,16,0.6,1,0.1,14
2016/12/16 1:47,0.6,16,0.6,1,0.4,11
2016/12/16 1:48,0.5,15,0.6,1,0.1,11
2016/12/16 1:49,0.5,14,0.5,1,0.1,11
2016/12/16 1:50,0.4,14,0.5,1,0.1,11
2016/12/16 1:51,0.3,13,0.4,1,0.8,13
2016/12/16 1:52,0.3,13,0.3,1,1.5,15
2016/12/16 1:53,0.2,13,0.3,1,0.9,12
2016/12/16 1:54,0.3,12,0.3,1,1.5,11
2016/12/16 1:55,0.4,12,0.4,1,1.3,11
2016/12/16 1:56,0.4,12,0.4,16,1.3,15
2016/12/16 1:57,0.4,12,0.5,16,0.9,14
2016/12/16 1:58,0.5,13,0.5,15,1.4,16
2016/12/16 1:59,0.5,13,0.5,14,0.6,13
2016/12/16 2:00,0.6,13,0.6,13,0.6,12
2016/12/16 2:01,0.5,13,0.6,13,0.1,11
2016/12/16 2:02,0.5,12,0.5,13,0.8,13
2016/12/16 2:03,0.5,12,0.5,13,1.4,12
2016/12/16 2:04,0.5,12,0.5,13,0.8,12
2016/12/16 2:05,0.4,12,0.5,13,0.9,9
2016/12/16 2:06,0.4,12,0.4,13,0.6,11
2016/12/16 2:07,0.4,11,0.4,13,0.8,10
2016/12/16 2:08,0.3,11,0.4,13,0.1,12
2016/12/16 2:09,0.3,10,0.3,13,0,8
2016/12/16 2:10,0.3,10,0.3,13,0,7
2016/12/16 2:11,0.3,10,0.3,13,0.5,10
2016/12/16 2:12,0.3,9,0.3,12,0.5,8
2016/12/16 2:13,0.2,9,0.3,12,1.1,10
2016/12/16 2:14,0.3,9,0.3,12,1.5,10
2016/12/16 2:15,0.3,9,0.3,12,0.8,10
2016/12/16 2:16,0.3,9,0.3,11,1,11
2016/12/16 2:17,0.4,9,0.4,11,3,11
2016/12/16 2:18,0.5,9,0.5,9,2.6,11
2016/12/16 2:19,0.6,9,0.6,9,1.5,9
2016/12/16 2:20,0.6,10,0.6,9,1.8,8
2016/12/16 2:21,0.6,10,0.6,9,0.9,10
2016/12/16 2:22,0.8,10,0.8,10,4.4,9
2016/12/16 2:23,1,10,1,10,4.5,10
2016/12/16 2:24,1.1,10,1.1,10,3.1,11
2016/12/16 2:25,1.3,11,1.3,11,5.2,11
2016/12/16 2:26,1.5,11,1.5,11,3.8,11
2016/12/16 2:27,1.6,11,1.6,11,3.7,11
2016/12/16 2:28,1.6,11,1.6,11,2.9,10
2016/12/16 2:29,1.6,11,1.6,11,1.6,10
2016/12/16 2:30,1.6,11,1.6,11,0.9,14
2016/12/16 2:31,1.6,12,1.6,11,0.5,15
2016/12/16 2:32,1.5,12,1.6,11,2.1,14
2016/12/16 2:33,1.3,13,1.5,11,1.9,14
2016/12/16 2:34,1.2,13,1.3,11,2.1,14
2016/12/16 2:35,1.1,13,1.3,11,2,12
2016/12/16 2:36,0.9,13,1.1,11,1.4,1
2016/12/16 2:37,0.7,13,0.9,11,0.8,15
2016/12/16 2:38,0.8,13,0.8,11,3,13
2016/12/16 2:39,0.9,14,0.9,11,3.7,16
2016/12/16 2:40,1,14,1,12,3,15
2016/12/16 2:41,1.1,14,1.1,12,3.9,11
2016/12/16 2:42,1.1,13,1.1,12,2,13
2016/12/16 2:43,1.1,13,1.1,13,3.6,15
2016/12/16 2:44,1.3,13,1.3,13,4.9,12
2016/12/16 2:45,1.3,14,1.3,13,2.2,12
2016/12/16 2:46,1.3,13,1.3,13,3,6
2016/12/16 2:47,1.4,14,1.4,14,3,16
2016/12/16 2:48,1.5,14,1.5,14,4.7,15
2016/12/16 2:49,1.6,14,1.6,14,5.2,13
2016/12/16 2:50,1.7,14,1.7,14,5.5,16
2016/12/16 2:51,1.9,14,1.9,14,4.3,16
2016/12/16 2:52,2.2,14,2.2,14,8.1,15
2016/12/16 2:53,2.4,14,2.4,14,7.2,16
2016/12/16 2:54,2.6,15,2.6,15,7.5,15
2016/12/16 2:55,3,15,3,15,9.2,16
2016/12/16 2:56,3.2,15,3.2,15,5.7,15
2016/12/16 2:57,3.2,15,3.2,15,3.8,16
2016/12/16 2:58,3.4,15,3.4,15,7.6,15
2016/12/16 2:59,3.5,15,3.5,15,4.9,14
2016/12/16 3:00,3.4,15,3.5,15,4.2,14
2016/12/16 3:01,3.2,14,3.4,15,2.7,14
2016/12/16 3:02,3.1,14,3.2,15,6.4,12
2016/12/16 3:03,2.9,14,3.1,15,6.8,14
2016/12/16 3:04,2.8,14,2.9,15,5.1,12
2016/12/16 3:05,2.6,14,2.7,15,4.5,14
2016/12/16 3:06,2.5,14,2.6,15,6.5,16
2016/12/16 3:07,2.7,14,2.7,15,6.5,12
2016/12/16 3:08,2.7,14,2.7,15,8.1,13
2016/12/16 3:09,2.8,14,2.8,15,9.1,15
2016/12/16 3:10,3,14,3,15,8.5,15
2016/12/16 3:11,3.2,14,3.2,14,5,1
2016/12/16 3:12,3.3,14,3.4,14,7.1,14
2016/12/16 3:13,3.5,15,3.5,15,5.2,15
2016/12/16 3:14,3.6,15,3.6,15,6,15
2016/12/16 3:15,4,15,4,15,11.9,16
2016/12/16 3:16,4.5,15,4.5,15,11,16
2016/12/16 3:17,4.5,15,4.6,15,6.3,15
2016/12/16 3:18,4.9,15,4.9,15,14.2,15
2016/12/16 3:19,5.2,15,5.2,15,11.1,16
2016/12/16 3:20,5.3,15,5.3,15,13.2,16
2016/12/16 3:21,5.5,15,5.5,15,10.5,16
2016/12/16 3:22,5.9,15,5.9,15,11.3,15
2016/12/16 3:23,6.1,15,6.1,15,10.8,16
2016/12/16 3:24,6.2,15,6.2,15,8.5,15
2016/12/16 3:25,6.3,15,6.3,15,13.4,15
2016/12/16 3:26,6.2,15,6.3,15,10.7,14
2016/12/16 3:27,6.4,16,6.4,16,10.8,15
2016/12/16 3:28,6.4,16,6.5,16,10.6,14
2016/12/16 3:29,6,16,6.3,16,8.5,16
2016/12/16 3:30,5.9,16,6,16,7.6,16
2016/12/16 3:31,5.6,16,5.9,16,5.4,16
2016/12/16 3:32,5.1,16,5.6,16,3.1,16
2016/12/16 3:33,4.7,16,5,16,3,1
2016/12/16 3:34,4.4,16,4.7,16,3.1,1
2016/12/16 3:35,3.8,16,4.3,16,2.7,3
2016/12/16 3:36,3.4,16,3.8,16,3.3,1
2016/12/16 3:37,2.9,16,3.4,16,2.5,1
2016/12/16 3:38,2.5,16,2.9,16,3.6,15
2016/12/16 3:39,2.3,16,2.5,16,3.6,15
2016/12/16 3:40,2,16,2.3,16,3.8,16
2016/12/16 3:41,1.9,16,2,16,4.3,15
2016/12/16 3:42,2.1,16,2.1,16,4.9,15
2016/12/16 3:43,2.1,16,2.2,16,4.3,14
2016/12/16 3:44,2.1,16,2.1,16,4.8,15
2016/12/16 3:45,2.2,15,2.2,16,3.7,16
2016/12/16 3:46,2.2,16,2.2,16,2.7,3
2016/12/16 3:47,2.2,16,2.2,16,3.2,4
2016/12/16 3:48,2.1,16,2.2,16,2.6,4
2016/12/16 3:49,2,1,2.1,16,1.6,3
2016/12/16 3:50,2,1,2,16,1.6,5
2016/12/16 3:51,1.8,1,2,16,1.3,16
2016/12/16 3:52,1.5,2,1.8,16,1,7
2016/12/16 3:53,1.3,2,1.5,15,2.5,9
2016/12/16 3:54,1.3,2,1.3,15,2.5,13
2016/12/16 3:55,1.2,2,1.3,15,3.9,12
2016/12/16 3:56,1.3,1,1.3,16,8.1,15
2016/12/16 3:57,1.6,16,1.6,16,10.1,16
2016/12/16 3:58,1.9,15,1.9,16,9.5,14
2016/12/16 3:59,2,15,2,1,5.7,2
2016/12/16 4:00,2.3,15,2.3,15,4.9,2
2016/12/16 4:01,2.5,15,2.5,15,4.9,14
2016/12/16 4:02,2.9,15,2.9,15,6.9,2
2016/12/16 4:03,3.2,16,3.2,16,6.7,16
2016/12/16 4:04,3.5,16,3.5,16,6,1
2016/12/16 4:05,3.6,16,3.6,16,4.1,16
2016/12/16 4:06,3.5,1,3.6,16,5.2,1
2016/12/16 4:07,3.3,1,3.4,16,8.2,1
2016/12/16 4:08,3.2,1,3.2,16,6.3,16
2016/12/16 4:09,3.3,1,3.3,16,6.8,15
2016/12/16 4:10,3.4,1,3.4,16,6.7,1
2016/12/16 4:11,3.5,1,3.5,16,6.4,15
2016/12/16 4:12,3.5,16,3.6,16,6.9,15
2016/12/16 4:13,3.4,16,3.5,16,6.2,15
2016/12/16 4:14,3.3,16,3.4,16,5.1,14
2016/12/16 4:15,3.3,16,3.3,16,7.4,15
2016/12/16 4:16,3.4,16,3.5,1,6.5,15
2016/12/16 4:17,3.3,16,3.4,1,5.5,15
2016/12/16 4:18,3.5,16,3.5,1,6.5,16
2016/12/16 4:19,3.3,15,3.4,1,6.7,14
2016/12/16 4:20,3.1,16,3.3,1,4.1,1
2016/12/16 4:21,2.8,16,3.1,1,2.7,16
2016/12/16 4:22,2.9,16,2.9,16,8.4,1
2016/12/16 4:23,2.9,16,2.9,16,6.4,16
2016/12/16 4:24,3.1,16,3.1,16,11.8,15
2016/12/16 4:25,3.3,16,3.3,16,8.6,15
2016/12/16 4:26,3.3,16,3.3,16,7,16
2016/12/16 4:27,3.4,16,3.4,16,5.7,1
2016/12/16 4:28,3.5,16,3.5,16,7.2,16
2016/12/16 4:29,3.6,16,3.6,16,6.8,2
2016/12/16 4:30,3.7,16,3.7,16,6.1,1
2016/12/16 4:31,3.8,16,3.8,16,4.1,16
2016/12/16 4:32,3.8,16,3.8,16,7.8,2
2016/12/16 4:33,3.8,16,3.8,16,5.8,15
2016/12/16 4:34,3.6,16,3.8,16,6,14
2016/12/16 4:35,3.4,16,3.6,16,7.5,15
2016/12/16 4:36,3.5,16,3.5,16,6.5,15
2016/12/16 4:37,3.4,16,3.5,16,5.1,15
2016/12/16 4:38,3.1,16,3.3,16,3.6,3
2016/12/16 4:39,3,16,3.1,16,4.7,15
2016/12/16 4:40,2.9,16,3,16,4.2,11
2016/12/16 4:41,2.8,15,2.9,16,3.5,13
2016/12/16 4:42,2.5,15,2.9,16,3.1,10
2016/12/16 4:43,2.4,15,2.5,16,3.7,14
2016/12/16 4:44,2.3,15,2.4,16,2.7,3
2016/12/16 4:45,2.2,15,2.3,16,4.1,4
2016/12/16 4:46,2,15,2.2,16,3.6,14
2016/12/16 4:47,2,15,2,16,3.6,2
2016/12/16 4:48,2.1,15,2.1,16,3.3,15
2016/12/16 4:49,2,16,2.1,16,3.7,2
2016/12/16 4:50,2,16,2,16,3.6,1
2016/12/16 4:51,2,1,2,15,4.1,16
2016/12/16 4:52,1.9,1,2,15,1.6,5
2016/12/16 4:53,1.8,1,1.9,15,2.9,3
2016/12/16 4:54,1.9,1,1.9,15,3.3,1
2016/12/16 4:55,1.7,1,1.8,15,3.5,16
2016/12/16 4:56,2,1,2,15,8.2,15
2016/12/16 4:57,2.1,1,2.1,15,7.1,16
2016/12/16 4:58,2.3,1,2.3,1,6,1
2016/12/16 4:59,2.5,1,2.5,1,7.5,1
2016/12/16 5:00,2.7,1,2.7,1,6.3,1
2016/12/16 5:01,3,1,3,1,9.2,16
2016/12/16 5:02,3.4,1,3.4,1,7.2,1
2016/12/16 5:03,3.9,16,3.9,16,9.2,15
2016/12/16 5:04,4.3,16,4.3,16,10.8,15
2016/12/16 5:05,4.8,16,4.8,16,11.8,14
2016/12/16 5:06,4.9,16,4.9,16,11.5,16
2016/12/16 5:07,5.2,16,5.2,16,12.1,15
2016/12/16 5:08,5.4,16,5.5,16,11.3,14
2016/12/16 5:09,5.4,15,5.5,16,10,16
2016/12/16 5:10,5.4,15,5.6,15,9,15
2016/12/16 5:11,5.6,15,5.6,15,12.2,16
2016/12/16 5:12,6.1,15,6.1,15,12.8,16
2016/12/16 5:13,6,15,6.1,15,10.1,15
2016/12/16 5:14,5.8,16,6,15,5.5,2
2016/12/16 5:15,5.6,15,5.9,15,7.7,15
2016/12/16 5:16,5.5,16,5.6,15,8.9,16
2016/12/16 5:17,5.5,16,5.5,15,9.1,2
2016/12/16 5:18,5.2,16,5.4,15,5.5,15
2016/12/16 5:19,5,16,5.2,15,4.4,16
2016/12/16 5:20,4.8,16,5,15,3.2,3
2016/12/16 5:21,4.1,16,4.8,15,2.4,14
2016/12/16 5:22,3.4,16,4.1,15,2.1,2
2016/12/16 5:23,2.9,16,3.4,15,2.4,16
2016/12/16 5:24,2.7,16,2.9,15,2.7,1
2016/12/16 5:25,2.6,16,2.7,16,6.4,15
2016/12/16 5:26,2.6,16,2.6,16,9.2,15
2016/12/16 5:27,2.3,16,2.6,16,8.5,15
2016/12/16 5:28,2.5,16,2.5,16,10.5,15
2016/12/16 5:29,2.8,16,2.8,16,10.5,15
2016/12/16 5:30,3.1,16,3.1,16,7.9,16
2016/12/16 5:31,3.5,15,3.5,16,8.1,16
2016/12/16 5:32,3.7,15,3.7,15,8.6,15
2016/12/16 5:33,3.8,15,3.8,15,4.3,1
2016/12/16 5:34,4.2,15,4.2,15,7.9,14
2016/12/16 5:35,4.4,15,4.5,15,10.5,15
2016/12/16 5:36,4.3,15,4.4,15,11.7,16
2016/12/16 5:37,4.6,15,4.6,15,12.1,16
2016/12/16 5:38,4.5,15,4.6,15,8.3,16
2016/12/16 5:39,4.4,15,4.5,15,8.9,1
2016/12/16 5:40,4.1,16,4.3,15,5.8,2
2016/12/16 5:41,4.2,16,4.2,15,11.7,16
2016/12/16 5:42,4.2,16,4.3,15,7.4,15
2016/12/16 5:43,4.4,16,4.4,15,6.2,2
2016/12/16 5:44,4.4,16,4.5,15,7.9,16
2016/12/16 5:45,4.3,16,4.4,15,7,1
2016/12/16 5:46,4.2,16,4.4,15,5.1,16
2016/12/16 5:47,4.1,16,4.3,15,5.4,16
2016/12/16 5:48,3.9,16,4.1,15,5.2,15
2016/12/16 5:49,3.9,16,4,16,4.9,16
2016/12/16 5:50,4,16,4,16,7.7,15
2016/12/16 5:51,3.9,16,4.1,16,7.1,1
2016/12/16 5:52,3.9,16,3.9,16,7,16
2016/12/16 5:53,3.8,16,3.9,16,4.4,16
2016/12/16 5:54,3.5,16,3.8,16,5.1,1
2016/12/16 5:55,3.3,16,3.5,16,5.1,16
2016/12/16 5:56,3.2,16,3.3,16,4.5,1
2016/12/16 5:57,3.1,16,3.2,16,5.1,1
2016/12/16 5:58,3,1,3.2,16,4.4,1
2016/12/16 5:59,2.7,16,3,16,1.4,16
2016/12/16 6:00,2.6,16,2.7,16,4.7,16
2016/12/16 6:01,2.6,16,2.6,16,6.5,16
2016/12/16 6:02,2.4,16,2.6,16,4.9,14
2016/12/16 6:03,2.4,16,2.4,16,4.2,1
2016/12/16 6:04,2.4,1,2.4,16,6.1,3
2016/12/16 6:05,2.4,1,2.5,16,5.1,16
2016/12/16 6:06,2.3,16,2.4,16,1.9,14
2016/12/16 6:07,2.1,16,2.2,16,2.7,1
2016/12/16 6:08,2.1,16,2.1,1,3.1,16
2016/12/16 6:09,2.3,16,2.3,16,3.9,15
2016/12/16 6:10,2.5,16,2.5,16,7.8,15
2016/12/16 6:11,2.6,16,2.6,16,7.6,15
2016/12/16 6:12,2.9,16,2.9,16,8.7,16
2016/12/16 6:13,3,16,3,16,10,16
2016/12/16 6:14,3.5,16,3.5,16,11.5,14
2016/12/16 6:15,3.8,16,3.8,16,11.7,15
2016/12/16 6:16,4.3,16,4.3,16,10.8,15
2016/12/16 6:17,4.7,16,4.7,16,10.9,16
2016/12/16 6:18,5.2,16,5.2,16,12.7,1
2016/12/16 6:19,5.5,16,5.5,16,10.1,15
2016/12/16 6:20,5.5,16,5.6,16,9.9,15
2016/12/16 6:21,5.5,16,5.5,16,8.5,15
2016/12/16 6:22,5.3,16,5.5,16,6.3,16
2016/12/16 6:23,5.2,16,5.3,16,6.4,16
2016/12/16 6:24,4.8,16,5.2,16,6,16
2016/12/16 6:25,4.4,16,4.8,16,3.7,16
2016/12/16 6:26,4.1,16,4.3,16,4.9,15
2016/12/16 6:27,3.7,16,4.1,16,3,16
2016/12/16 6:28,3.3,16,3.7,16,6.2,15
2016/12/16 6:29,3.1,16,3.3,16,5.2,16
2016/12/16 6:30,2.9,16,3.1,16,4.9,1
2016/12/16 6:31,2.7,16,2.9,16,4.7,15
2016/12/16 6:32,2.8,16,2.8,16,5.4,2
2016/12/16 6:33,2.7,16,2.8,16,3.8,16
2016/12/16 6:34,2.5,16,2.7,16,2.6,16
2016/12/16 6:35,2.5,1,2.5,16,2.9,3
2016/12/16 6:36,2.3,1,2.4,16,3.8,2
2016/12/16 6:37,2.5,1,2.5,16,6.8,4
2016/12/16 6:38,2.3,1,2.5,16,3.8,1
2016/12/16 6:39,2.1,1,2.3,16,3.1,15
2016/12/16 6:40,1.9,1,2.1,16,1.5,15
2016/12/16 6:41,1.6,1,1.8,16,1,14
2016/12/16 6:42,1.4,1,1.6,16,3.1,16
2016/12/16 6:43,1.3,16,1.4,16,1.9,15
2016/12/16 6:44,1.4,16,1.4,16,3.5,13
2016/12/16 6:45,1.6,16,1.6,1,6,14
2016/12/16 6:46,1.9,15,1.9,1,9,14
2016/12/16 6:47,2.3,15,2.3,1,12.3,16
2016/12/16 6:48,2.7,15,2.7,15,13.9,16
2016/12/16 6:49,3.5,15,3.5,15,14,15
2016/12/16 6:50,4,15,4,15,11.3,16
2016/12/16 6:51,4.7,15,4.7,15,11.4,16
2016/12/16 6:52,5.5,16,5.5,16,15,16
2016/12/16 6:53,6.1,16,6.1,16,10.1,16
2016/12/16 6:54,6.4,16,6.4,16,10,16
2016/12/16 6:55,6.3,16,6.4,16,4.8,16
2016/12/16 6:56,6.6,16,6.7,16,12.1,15
2016/12/16 6:57,6.3,16,6.5,16,6.3,16
2016/12/16 6:58,6,16,6.2,16,7.2,16
2016/12/16 6:59,5.6,16,6,16,7.1,14
2016/12/16 7:00,5.6,16,5.6,16,6.4,1
2016/12/16 7:01,5.3,16,5.6,16,7.5,16
2016/12/16 7:02,4.5,16,5.2,16,5.4,1
2016/12/16 7:03,4.1,16,4.5,16,4.8,1
2016/12/16 7:04,3.8,16,4.1,16,4.9,15
2016/12/16 7:05,3.7,16,3.8,16,3.9,16
2016/12/16 7:06,3.4,16,3.7,16,8.9,16
2016/12/16 7:07,3.5,16,3.5,16,8.3,15
2016/12/16 7:08,3.7,16,3.7,16,11,16
2016/12/16 7:09,3.8,16,3.8,16,9.4,16
2016/12/16 7:10,4.1,16,4.1,16,14.1,16
2016/12/16 7:11,4.4,16,4.4,16,14.2,16
2016/12/16 7:12,4.6,16,4.6,16,8.4,15
2016/12/16 7:13,5,16,5,16,13.1,14
2016/12/16 7:14,5.3,16,5.3,16,12.4,15
2016/12/16 7:15,5.5,16,5.5,16,7.2,16
2016/12/16 7:16,6,16,6,16,14.3,14
2016/12/16 7:17,6.1,16,6.2,16,9.5,16
2016/12/16 7:18,5.9,16,6.1,16,10.1,15
2016/12/16 7:19,6.2,16,6.2,16,12.5,16
2016/12/16 7:20,5.9,16,6.2,16,10.8,15
2016/12/16 7:21,6,16,6,16,15.1,15
2016/12/16 7:22,6.1,16,6.1,16,9.9,16
2016/12/16 7:23,6.2,15,6.3,16,11,15
2016/12/16 7:24,6.4,16,6.4,16,9.5,14
2016/12/16 7:25,6.6,16,6.6,16,10.2,16
2016/12/16 7:26,6.2,16,6.6,16,10.8,16
2016/12/16 7:27,6.1,16,6.3,16,10.7,15
2016/12/16 7:28,6.3,16,6.4,16,11.8,16
2016/12/16 7:29,6.3,16,6.3,16,12.3,16
2016/12/16 7:30,6.4,16,6.4,16,9.1,16
2016/12/16 7:31,6.2,16,6.4,16,14.3,16
2016/12/16 7:32,6.3,16,6.3,16,11.7,16
2016/12/16 7:33,6.2,16,6.3,16,9.3,16
2016/12/16 7:34,6,16,6.1,16,9.3,16
2016/12/16 7:35,5.8,16,6,16,7.6,16
2016/12/16 7:36,5.9,16,6.1,16,11.6,16
2016/12/16 7:37,6.1,16,6.1,16,9.1,16
2016/12/16 7:38,5.8,16,6.1,16,8.2,1
2016/12/16 7:39,5.8,16,5.8,16,15.3,15
2016/12/16 7:40,5.5,16,5.8,16,8.9,16
2016/12/16 7:41,5.1,16,5.5,16,4.7,1
2016/12/16 7:42,4.9,16,5.1,16,11.9,1
2016/12/16 7:43,5,16,5,16,13.9,16
2016/12/16 7:44,4.9,16,5,16,8.3,16
2016/12/16 7:45,4.9,16,4.9,16,7.6,16
2016/12/16 7:46,4.5,16,4.9,16,4.3,15
2016/12/16 7:47,4.3,16,4.4,16,6.2,16
2016/12/16 7:48,4.5,16,4.5,16,10.6,1
2016/12/16 7:49,4.2,16,4.6,16,9.4,1
2016/12/16 7:50,4.3,16,4.3,16,10.9,1
2016/12/16 7:51,4.6,16,4.6,16,6.7,16
2016/12/16 7:52,4.5,16,4.6,16,8.3,1
2016/12/16 7:53,4.5,16,4.5,16,10,1
2016/12/16 7:54,4.7,16,4.7,16,11.5,16
2016/12/16 7:55,4.8,16,4.8,16,12.5,16
2016/12/16 7:56,4.9,16,4.9,16,5.4,16
2016/12/16 7:57,5,16,5,16,8.5,14
2016/12/16 7:58,5.2,16,5.2,16,12.1,15
2016/12/16 7:59,5.3,16,5.3,16,8.2,16
2016/12/16 8:00,5.2,16,5.3,16,6.9,15
2016/12/16 8:01,5.2,16,5.2,16,6.1,16
2016/12/16 8:02,5.3,16,5.4,16,7.7,15
2016/12/16 8:03,5.1,16,5.3,16,7.4,15
2016/12/16 8:04,4.7,16,5.1,16,6.2,1
2016/12/16 8:05,4.7,16,4.7,16,10,15
2016/12/16 8:06,4.8,16,4.8,16,6.5,15
2016/12/16 8:07,5,16,5,16,12.2,15
2016/12/16 8:08,4.6,16,4.9,16,9.1,1
2016/12/16 8:09,4.9,16,4.9,16,11,16
2016/12/16 8:10,5.4,16,5.4,16,13.8,16
2016/12/16 8:11,5.7,16,5.7,16,14.2,16
2016/12/16 8:12,5.7,16,5.7,16,8.4,1
2016/12/16 8:13,6,16,6,16,11.7,16
2016/12/16 8:14,6.3,16,6.3,16,10.8,15
2016/12/16 8:15,6.1,16,6.3,16,6.5,1
2016/12/16 8:16,6.1,16,6.1,16,6.9,16
2016/12/16 8:17,5.9,16,6.1,16,8.7,15
2016/12/16 8:18,5.9,16,6,16,8.4,1
2016/12/16 8:19,5.8,16,5.9,16,10.5,16
2016/12/16 8:20,5.4,16,5.7,16,9.2,15
2016/12/16 8:21,5,16,5.4,16,6,15
2016/12/16 8:22,4.7,16,5,16,4.7,16
2016/12/16 8:23,4.3,16,4.7,16,3.7,15
2016/12/16 8:24,4.1,16,4.3,16,7.5,15
2016/12/16 8:25,4.2,16,4.2,16,7.2,15
2016/12/16 8:26,4,16,4.2,16,4.2,15
2016/12/16 8:27,4,16,4.1,16,6,16
2016/12/16 8:28,4.1,16,4.1,16,9.2,16
2016/12/16 8:29,3.7,16,4.1,16,6.9,16
2016/12/16 8:30,3.5,16,3.7,16,8.4,16
2016/12/16 8:31,3.9,16,3.9,16,11.3,15
2016/12/16 8:32,4.3,16,4.3,16,11.3,16
2016/12/16 8:33,4.6,16,4.6,16,12.2,15
2016/12/16 8:34,4.8,16,4.8,16,13.9,15
2016/12/16 8:35,5,16,5,16,10.7,16
2016/12/16 8:36,5.2,16,5.2,16,10.2,14
2016/12/16 8:37,5.4,16,5.4,16,12.2,1
2016/12/16 8:38,5.4,16,5.4,16,11.9,16
2016/12/16 8:39,6.1,16,6.1,16,16.7,1
2016/12/16 8:40,6.6,16,6.6,16,14.4,1
2016/12/16 8:41,6.6,16,6.7,16,15.6,1
2016/12/16 8:42,6.9,16,6.9,16,12.5,16
2016/12/16 8:43,6.8,16,6.9,16,10,16
2016/12/16 8:44,6.8,16,6.9,16,9.1,15
2016/12/16 8:45,6.8,16,6.8,16,10.3,15
2016/12/16 8:46,6.9,16,6.9,16,10.1,1
2016/12/16 8:47,6.7,16,6.9,16,9.8,2
2016/12/16 8:48,6.4,16,6.7,16,7.2,15
2016/12/16 8:49,5.8,16,6.4,16,6.1,16
2016/12/16 8:50,5.4,16,5.7,16,6.8,14
2016/12/16 8:51,5,16,5.3,16,6.4,15
2016/12/16 8:52,4.6,16,5,16,9.7,16
2016/12/16 8:53,4.4,16,4.6,16,6.3,1
2016/12/16 8:54,4.3,16,4.4,16,11.3,15
2016/12/16 8:55,4.4,16,4.4,16,11.7,16
2016/12/16 8:56,4.4,16,4.5,16,9.1,16
2016/12/16 8:57,4.4,16,4.4,16,6.7,16
2016/12/16 8:58,4.6,16,4.6,16,10.3,16
2016/12/16 8:59,4.6,16,4.6,16,8.3,15
2016/12/16 9:00,4.7,16,4.7,16,7.7,16
2016/12/16 9:01,4.9,16,4.9,16,8.2,15
2016/12/16 9:02,4.7,16,4.8,16,7.2,16
2016/12/16 9:03,5.2,16,5.2,16,12.7,16
2016/12/16 9:04,5.3,16,5.4,16,10.1,1
2016/12/16 9:05,4.9,16,5.2,16,7.4,15
2016/12/16 9:06,5,16,5,16,10.5,14
2016/12/16 9:07,5.6,16,5.6,16,15.3,15
2016/12/16 9:08,5.9,16,5.9,16,15,15
2016/12/16 9:09,6.3,16,6.3,16,13.8,15
2016/12/16 9:10,6.5,16,6.5,16,12.2,15
2016/12/16 9:11,6.5,16,6.5,16,9.2,16
2016/12/16 9:12,6.9,16,6.9,16,13,14
2016/12/16 9:13,6.8,16,6.9,16,12.7,16
2016/12/16 9:14,7,16,7,16,13.8,15
2016/12/16 9:15,7.5,16,7.5,16,20.5,15
2016/12/16 9:16,7.4,16,7.6,16,10.3,16
2016/12/16 9:17,6.9,16,7.3,16,9.8,1
2016/12/16 9:18,6.7,16,7,16,10.9,16
2016/12/16 9:19,6.6,16,6.7,16,13,16
2016/12/16 9:20,6.7,16,6.7,16,13.2,16
2016/12/16 9:21,6.7,16,6.7,16,10.6,16
2016/12/16 9:22,6.5,16,6.7,16,7,16
2016/12/16 9:23,6.3,16,6.5,16,13.8,15
2016/12/16 9:24,6.2,16,6.3,16,15.2,16
2016/12/16 9:25,5.9,16,6.2,16,10.1,16
2016/12/16 9:26,5.8,16,5.9,16,7.9,2
2016/12/16 9:27,6,16,6,16,13,16
2016/12/16 9:28,5.8,16,6,16,8.5,1
2016/12/16 9:29,5.5,16,5.8,16,10.6,16
2016/12/16 9:30,5.7,16,5.7,16,13.3,15
2016/12/16 9:31,5.7,16,5.8,16,9.8,16
2016/12/16 9:32,5.9,16,5.9,16,11.3,16
2016/12/16 9:33,5.7,16,5.9,16,9.3,15
2016/12/16 9:34,5.8,16,5.9,16,10.3,15
2016/12/16 9:35,5.8,16,5.9,16,10,1
2016/12/16 9:36,6.3,16,6.3,16,13.9,16
2016/12/16 9:37,6.4,16,6.5,16,16,16
2016/12/16 9:38,6.4,16,6.4,16,11.1,14
2016/12/16 9:39,6.7,16,6.8,16,14,15
2016/12/16 9:40,6.4,16,6.7,16,9.5,1
2016/12/16 9:41,6.5,16,6.5,16,10.2,16
2016/12/16 9:42,6,16,6.4,16,6.8,1
2016/12/16 9:43,5.8,16,6,16,6.1,15
2016/12/16 9:44,5.6,16,5.7,16,7.4,15
2016/12/16 9:45,5.4,16,5.6,16,9.4,14
2016/12/16 9:46,4.9,16,5.4,16,9.4,15
2016/12/16 9:47,4.3,16,4.8,16,5.1,12
2016/12/16 9:48,4.3,16,4.4,16,12.3,15
2016/12/16 9:49,4.4,16,4.4,16,13,15
2016/12/16 9:50,4.5,16,4.5,16,11.6,15
2016/12/16 9:51,5,16,5,16,15,16
2016/12/16 9:52,5.3,16,5.3,16,15,1
2016/12/16 9:53,5.7,16,5.7,16,14.7,14
2016/12/16 9:54,6.2,16,6.2,16,15.3,16
2016/12/16 9:55,6.3,16,6.3,16,9.8,15
2016/12/16 9:56,6.8,16,6.8,16,17,14
2016/12/16 9:57,7.3,15,7.3,15,13.9,15
2016/12/16 9:58,7.6,15,7.6,15,16,15
2016/12/16 9:59,7.4,16,7.7,15,13.4,16
2016/12/16 10:00,7.3,16,7.4,15,11.1,15
2016/12/16 10:01,6.9,16,7.3,15,12.8,15
2016/12/16 10:02,6.9,15,6.9,15,11,16
2016/12/16 10:03,6.9,15,7,15,11.6,16
2016/12/16 10:04,6.8,15,6.9,15,13.5,15
2016/12/16 10:05,7.1,16,7.1,15,13.8,16
2016/12/16 10:06,6.8,16,7.1,15,9.2,15
2016/12/16 10:07,6.8,16,6.9,15,13.8,16
2016/12/16 10:08,6.7,16,6.8,15,13.9,15
2016/12/16 10:09,6.8,16,6.8,16,12.5,15
2016/12/16 10:10,6.8,16,6.9,16,10.7,16
2016/12/16 10:11,6.6,16,6.8,16,6.3,15
2016/12/16 10:12,6.5,16,6.7,16,9.7,16
2016/12/16 10:13,6.5,16,6.5,16,13.5,16
2016/12/16 10:14,6.2,16,6.5,16,8.9,2
2016/12/16 10:15,6.3,16,6.3,16,14.5,16
2016/12/16 10:16,6.1,16,6.3,16,14.5,1
2016/12/16 10:17,5.9,16,6.1,16,7.1,16
2016/12/16 10:18,5.5,16,5.8,16,9.4,15
2016/12/16 10:19,5.5,16,5.6,16,10.1,15
2016/12/16 10:20,5.6,16,5.6,16,10.7,1
2016/12/16 10:21,6.2,16,6.2,16,17.1,15
2016/12/16 10:22,6.3,16,6.3,16,12.2,16
2016/12/16 10:23,6.5,16,6.5,16,16.2,16
2016/12/16 10:24,6.5,16,6.6,16,12.1,14
2016/12/16 10:25,6.3,16,6.4,16,9.8,15
2016/12/16 10:26,6.3,16,6.3,16,10.3,16
2016/12/16 10:27,6.3,16,6.3,16,8.6,16
2016/12/16 10:28,6.4,16,6.4,16,9.5,16
2016/12/16 10:29,6.4,16,6.4,16,12.1,14
2016/12/16 10:30,6.1,16,6.3,16,7.5,1
2016/12/16 10:31,5.2,16,6,16,4.4,15
2016/12/16 10:32,5.2,15,5.3,16,8.4,15
2016/12/16 10:33,4.9,16,5.2,16,8.4,15
2016/12/16 10:34,4.9,16,4.9,16,11.5,15
2016/12/16 10:35,5,16,5,16,14.4,16
2016/12/16 10:36,5.1,16,5.1,16,13,16
2016/12/16 10:37,5.1,16,5.1,16,8.1,16
2016/12/16 10:38,5.3,16,5.3,16,9.8,15